[[{"header":{"parameterUnit":"m.s-1","parameterCategory":1,"la1":30.2992,"la2":30.254,"lo1":-89.0895,"lo2":-89.0443,"dy":0.0025,"dx":0.0025,"nx":19,"ny":19,"refTime":"2026-05-10T21:00:00:Z","depth":0,"parameterNumber":2,"parameterNumberName":"U-component_of_WINDS"},"data":[0,0,0,-4.3675,-4.3676,-4.3709,-4.3709,-4.3777,-4.3778,0,0,0,0,0,0,0,0,0,0,0,-4.3682,-4.3682,-4.3675,-4.3676,-4.3709,-4.3709,-4.3777,-4.3778,0,0,0,0,0,0,0,0,0,0,0,-4.3681,-4.3682,-4.3683,-4.3677,-4.3709,-4.3709,-4.3777,-4.3743,0,0,0,0,0,0,0,0,0,0,-4.3707,-4.3728,-4.3682,-4.3684,-4.3677,-4.3709,-4.3709,-4.3741,-4.3745,-4.3774,0,-4.3803,0,-4.3792,-4.3785,-4.3785,0,0,0,-4.3665,-4.3725,-4.3719,-4.3684,-4.3677,-4.3709,-4.3691,-4.3743,-4.3748,-4.378,-4.3804,-4.3806,-4.3793,-4.3785,-4.3786,-4.3991,-4.3992,0,0,-4.3663,-4.3696,-4.3716,-4.3723,-4.3719,-4.369,-4.3692,-4.3745,-4.3774,-4.3804,-4.3807,-4.3794,-4.3786,-4.3786,-4.3989,-4.3991,0,0,0,-4.3666,-4.3695,-4.3688,-4.3721,-4.3725,-4.3691,-4.3694,-4.3772,-4.3767,-4.3808,-4.3795,-4.3786,-4.3787,-4.3987,-4.399,-4.4097,0,0,0,-4.3664,-4.3697,-4.3688,-4.3708,-4.3724,-4.3749,-4.372,-4.3763,-4.3768,-4.3795,-4.3786,-4.3788,-4.3986,-4.3989,-4.4091,-4.4143,0,0,0,-4.3674,-4.3698,-4.3708,-4.371,-4.3725,-4.3747,-4.3744,-4.3763,-4.3761,-4.3785,-4.3789,-4.3985,-4.3988,-4.4085,-4.4133,-4.4208,0,0,0,-4.3694,-4.3802,-4.371,-4.3826,-4.3725,-4.3813,-4.3744,-4.3807,-4.384,-4.3787,-4.3986,-4.399,-4.4083,-4.4127,-4.4202,-4.4278,-4.4312,0,0,-4.3849,-4.3822,-4.3887,-4.3806,-4.3919,-4.3805,-4.3933,-4.3932,-4.3904,-4.3964,-4.3968,-4.4093,-4.4133,-4.4207,-4.449,-4.4518,0,0,0,-4.3947,-4.3995,-4.4018,-4.4051,-4.4053,-4.4059,-4.4034,-4.4034,-4.4083,-4.3941,-4.4138,-4.416,-4.4203,-4.4238,-4.4261,-4.4296,-4.4007,-4.4006,-4.4006,-4.4215,-4.4173,-4.4279,-4.4242,-4.4275,-4.4249,-4.4272,-4.4267,-4.4215,-4.4263,-4.4281,-4.4458,-4.45,-4.4517,-4.4554,-4.4316,-4.4316,-4.4317,-4.4317,-4.4439,-4.4501,-4.4429,-4.4507,-4.4463,-4.4527,-4.4507,-4.4468,-4.4522,-4.444,-4.4475,-4.4391,-4.4549,-4.4579,-4.4325,-4.4323,-4.4322,-4.4321,-4.4321,-4.4611,-4.4634,-4.4631,-4.4675,-4.4714,-4.4672,-4.4728,-4.4685,-4.4645,-4.4679,-4.4695,-4.4693,-4.4687,-4.4689,-4.469,-4.469,-4.4691,-4.4691,-4.4692,-4.4792,-4.4785,-4.4838,-4.4849,-4.4865,-4.4881,-4.4856,-4.487,-4.4876,-4.4841,-4.484,-4.4786,-4.4571,-4.4519,-4.4701,-4.47,-4.4698,-4.4697,-4.4697,-4.5039,-4.4976,-4.5057,-4.5073,-4.5083,-4.5126,-4.5069,-4.5103,-4.5109,-4.5139,-4.5076,-4.4923,-4.4893,-4.4874,-4.4831,-4.5083,-4.5083,-4.5083,-4.5083,-4.5186,-4.5165,-4.5239,-4.5268,-4.5291,-4.5249,-4.5343,-4.5325,-4.5297,-4.5298,-4.5255,-4.5194,-4.5176,-4.5156,-4.5131,-4.5091,-4.5403,-4.5403,-4.5403,-4.5336,-4.5316,-4.5405,-4.5375,-4.538,-4.5386,-4.5474,-4.5511,-4.5465,-4.5416,-4.5299,-4.5286,-4.5186,-4.5155,-4.5105,-4.5067,-4.4992,0,0]},{"header":{"parameterUnit":"m.s-1","parameterCategory":1,"la1":30.2992,"la2":30.254,"lo1":-89.0895,"lo2":-89.0443,"dy":0.0025,"dx":0.0025,"nx":19,"ny":19,"refTime":"2026-05-10T21:00:00:Z","depth":0,"parameterNumber":3,"parameterNumberName":"V-component_of_WINDS"},"data":[0,0,0,-0.7152,-0.7152,-0.7144,-0.7144,-0.714,-0.714,0,0,0,0,0,0,0,0,0,0,0,-0.7159,-0.7159,-0.7152,-0.7152,-0.7144,-0.7144,-0.714,-0.714,0,0,0,0,0,0,0,0,0,0,0,-0.7159,-0.7159,-0.7159,-0.7152,-0.7144,-0.7144,-0.714,-0.7144,0,0,0,0,0,0,0,0,0,0,-0.715,-0.7161,-0.7159,-0.7159,-0.7152,-0.7144,-0.7144,-0.7144,-0.7144,-0.7147,0,-0.7152,0,-0.7146,-0.7141,-0.7141,0,0,0,-0.7148,-0.7162,-0.7155,-0.7159,-0.7152,-0.7144,-0.7146,-0.7144,-0.7143,-0.7147,-0.7152,-0.7151,-0.7146,-0.7141,-0.7141,-0.7172,-0.7173,0,0,-0.7149,-0.716,-0.7156,-0.7155,-0.7157,-0.7147,-0.7146,-0.7143,-0.7149,-0.7152,-0.7151,-0.7146,-0.7141,-0.7141,-0.7172,-0.7173,0,0,0,-0.7152,-0.716,-0.7154,-0.7156,-0.7154,-0.7146,-0.7146,-0.7149,-0.7146,-0.7151,-0.7146,-0.7141,-0.7141,-0.7172,-0.7172,-0.7199,0,0,0,-0.7152,-0.7162,-0.7154,-0.7161,-0.7154,-0.7152,-0.7152,-0.7147,-0.7146,-0.7146,-0.7141,-0.7141,-0.7171,-0.7172,-0.7197,-0.721,0,0,0,-0.7158,-0.7163,-0.7163,-0.7162,-0.7158,-0.7151,-0.7148,-0.7146,-0.7143,-0.7141,-0.7141,-0.7171,-0.7172,-0.7196,-0.7208,-0.7221,0,0,0,-0.7167,-0.7187,-0.7164,-0.7185,-0.7159,-0.7168,-0.7148,-0.7154,-0.7155,-0.7141,-0.7172,-0.7172,-0.7196,-0.7206,-0.722,-0.7236,-0.7243,0,0,-0.7199,-0.7192,-0.7203,-0.7182,-0.7198,-0.7168,-0.7188,-0.7178,-0.7168,-0.7171,-0.7172,-0.7198,-0.7207,-0.7221,-0.7279,-0.7285,0,0,0,-0.7217,-0.7225,-0.7227,-0.7229,-0.7222,-0.7216,-0.7203,-0.7199,-0.7201,-0.7172,-0.7206,-0.7211,-0.7219,-0.7226,-0.7231,-0.7237,-0.7176,-0.7176,-0.7176,-0.728,-0.7265,-0.7282,-0.7266,-0.7268,-0.7252,-0.7252,-0.7244,-0.7229,-0.7237,-0.7239,-0.7276,-0.7284,-0.7288,-0.7294,-0.7245,-0.7245,-0.7245,-0.7245,-0.7326,-0.7336,-0.7314,-0.7323,-0.7307,-0.7314,-0.73,-0.7288,-0.7293,-0.7274,-0.728,-0.7261,-0.7295,-0.73,-0.7247,-0.7247,-0.7247,-0.7246,-0.7246,-0.7366,-0.7368,-0.7363,-0.7363,-0.7364,-0.7346,-0.7351,-0.7336,-0.7322,-0.7328,-0.7327,-0.7327,-0.7325,-0.7328,-0.7328,-0.7328,-0.7329,-0.7329,-0.7329,-0.741,-0.7403,-0.7409,-0.7403,-0.7401,-0.7397,-0.7381,-0.7379,-0.7373,-0.7361,-0.7361,-0.7345,-0.7301,-0.7291,-0.7331,-0.733,-0.733,-0.733,-0.733,-0.7464,-0.7449,-0.7459,-0.7457,-0.7447,-0.7449,-0.7429,-0.7426,-0.7422,-0.7425,-0.7407,-0.7377,-0.7368,-0.7364,-0.7356,-0.741,-0.741,-0.741,-0.741,-0.7498,-0.7492,-0.7498,-0.7496,-0.7492,-0.7475,-0.7486,-0.7473,-0.7457,-0.7454,-0.7443,-0.743,-0.7427,-0.742,-0.7415,-0.7407,-0.7473,-0.7473,-0.7473,-0.753,-0.7523,-0.7535,-0.752,-0.7511,-0.7503,-0.7512,-0.7511,-0.749,-0.7475,-0.745,-0.7448,-0.7426,-0.742,-0.7406,-0.7398,-0.7383,0,0]}]]